PALISADE

Satellite information

Favourite Embed

Satellite Type and Status

PAYLOADIN ORBIT

Key statistics

Satellite PALISADE at a glance.

Uptime

2154

Days in orbit

Revolutions

≈ 13.1

Per day

Orbit

LEO

Low Earth Orbit

Inclination

87.9

Latest

Satellite identification and parameters

Extended collection of information and parameters for PALISADE.

Object identification

Identified? True

Debris? False

Object name: PALISADE

International designator: 2019-069A

Object number (NORAD): 44634

Object ID (CCSDS): 44634

Country: UNITED STATES OF AMERICA (US)

Current information (Y/N): Y

RCS size: MEDIUM

Orbital parameters

Period: 109.765 minutes

Inclination: 87.8995 deg

SMA: 7593.98 km

Apoapsis: 1224.256 km

Periapsis: 1207.434 km

RAAN: 335.8809 deg

Eccentricy: 0.00110756

Argument of periapsis: 101.9327 deg

Mean anomaly: 258.3044 deg

Mean motion: 13.1189353 rev/day

Mean motion (dot): 0.0000037 rev/day2

B* drag term: 0.001001821 1/REarth

Two-line elements (TLE)

Creation date: Sept. 8, 2025, 6:18 p.m.

Reference frame: TEME

Reference center: EARTH

Epoch: Sept. 8, 2025, 7:31 a.m. UTC

TLE line 0: 0 PALISADE

TLE line 1: 1 44634U 19069A 25251.31377814 .00000370 00000-0 10018-2 0 9997

TLE line 2: 2 44634 87.8995 335.8809 0011076 101.9327 258.3044 13.11893530282151

Live tracking on map

Real-time ground track for satellite PALISADE.

In-orbit conjunctions

There are no conjunctions computed for PALISADE, at the moment. Check back to stay up to date, as we update our databases every day.

Go to all conjunctions

Associated space launch

Encapsulated in Electron's fairing will be a single spacecraft for Astro Digital, a California-based satellite manufacturer and operator. The Landmapper-BC remote sensing satellite features a broad coverage multispectral imaging system with a resolution of 22 meters per pixel. Eventually, Astro Digital plans to extend the Landmapper-BC constellation to capture daily, multispectral imagery of the world’s arable land. The mission is named 'As The Crow Flies' in a nod to Astro Digital's Corvus Platform, which provides flexible and cost-effective solutions across a wide range of applications and mission profiles on bus variants ranging from 6U and 16U CubeSats to ESPA Class. Corvus is also a widely-distributed genus of birds which includes crows.

PALISADE was lifted into orbit during the mission ‘Electron | As The Crow Flies (Palisade)’, on board a Electron space rocket.

The launch took place on Oct. 17, 2019, 1:22 a.m. from Rocket Lab Launch Complex 1A.

For more information about the launch, click the button.

Launch to space Electron | As The Crow Flies (Palisade)
Electron | As The Crow Flies (Palisade)

Agency: N/A

Status: Launch Successful

Launch date: Oct. 17, 2019, 1:22 a.m. UTC

Rocket: Electron

Launch pad: Rocket Lab Launch Complex 1A

Location: Rocket Lab Launch Complex 1, Mahia Peninsula, New Zealand

...

Latest news about this satellite

News about space launch
Rocket Lab launches Electron Flight 9 as work on new U.S. pad continues

News about space launch
Rocket Lab delivers on dedicated launch for Astro Digital

News about space launch
Rocket Lab preps for commercial satellite launch this week


Newsletter sign-up

Weekly statistics, charts and insights to help you stay on top of the space industry.